Weather History for Tanana, AK

Change the Weather History Date:

Friday, June 1, 2012

  Actual Average Record
Temperature  
Mean Temperature 56 °F -  
Max Temperature 72 °F 66 °F 81 °F (1958)
Min Temperature 43 °F 42 °F 32 °F (2006)
Degree Days  
Heating Degree Days 8    
Growing Degree Days 6 (Base 50)    
Moisture  
Dew Point 38 °F    
Average Humidity 53    
Maximum Humidity 86    
Minimum Humidity 19    
Precipitation  
Precipitation 0.02 in - - ()
Sea Level Pressure  
Sea Level Pressure 29.62 in    
Wind  
Wind Speed 5 mph (WNW)    
Max Wind Speed 14 mph    
Max Gust Speed 21 mph    
Visibility 10 miles    
Events Rain    
Averages and records for this station are not official NWS values.
T = Trace of Precipitation, MM = Missing Value Source: NWS Daily Summary

Daily Weather History Graph

Daily Weather History Graph

Search for Another Location

Airport:

Trip Planner

Search our weather history database for the weather conditions in past years. The results will help you decide how hot, cold, wet, or windy it might be!

Date:

Astronomy

Jun. 01, 2012 Rise Set
Actual Time 3:40 AM AKDT 12:35 AM AKDT
Civil Twilight Sun does not rise Sun does not rise
Nautical Twilight Sun does not rise Sun does not rise
Astronomical Twilight Sun does not rise Sun does not rise
Moon 8:38 PM AKDT (6/1) 2:58 AM AKDT (6/1)
Length of Visible Light 24h 00m
Length of Day
20h 55m
Waxing Gibbous, 90% of the Moon is Illuminated
Jun 1
Waxing Gibbous
Jun 4
Full
Jun 11
Last Quarter
Jun 19
New
Jun 26
First Quarter

Hourly Weather History & Observations

Time (AKDT) Temp. Windchill Dew Point Humidity Pressure Visibility Wind Dir Wind Speed Gust Speed Precip Events Conditions
12:52 AM 52.0 °F - 46.0 °F 80% 29.56 in 10.0 mi Calm Calm - N/A   Scattered Clouds
1:52 AM 48.0 °F - 41.0 °F 77% 29.58 in 10.0 mi North 3.5 mph - N/A   Overcast
2:52 AM 46.0 °F - 39.9 °F 79% 29.60 in 8.0 mi Calm Calm - N/A   Overcast
3:52 AM 43.0 °F 41.3 °F 37.9 °F 82% 29.60 in 10.0 mi NNE 3.5 mph - N/A   Scattered Clouds
4:52 AM 43.0 °F 41.3 °F 39.0 °F 86% 29.62 in 10.0 mi West 3.5 mph - N/A   Scattered Clouds
5:52 AM 50.0 °F - 43.0 °F 77% 29.62 in 10.0 mi Calm Calm - N/A   Clear
6:52 AM 50.0 °F - 44.1 °F 80% 29.63 in 10.0 mi SW 4.6 mph - N/A   Overcast
7:52 AM 52.0 °F - 46.0 °F 80% 29.64 in 10.0 mi Calm Calm - N/A   Overcast
8:45 AM 55.4 °F - 44.6 °F 67% 29.64 in 10.0 mi WNW 5.8 mph - N/A Rain Light Rain
8:52 AM 55.9 °F - 46.0 °F 69% 29.64 in 10.0 mi WNW 5.8 mph - 0.00 in Rain Light Rain
9:52 AM 55.9 °F - 48.0 °F 75% 29.64 in 10.0 mi WNW 10.4 mph - 0.01 in Rain Light Rain
10:52 AM 57.0 °F - 48.9 °F 74% 29.64 in 10.0 mi WSW 4.6 mph - 0.01 in   Mostly Cloudy
11:52 AM 57.9 °F - 46.9 °F 67% 29.64 in 10.0 mi WSW 4.6 mph - N/A   Mostly Cloudy
12:52 PM 63.0 °F - 43.0 °F 48% 29.63 in 10.0 mi WSW 4.6 mph - N/A   Mostly Cloudy
1:52 PM 64.9 °F - 39.9 °F 40% 29.61 in 10.0 mi WSW 6.9 mph - N/A   Mostly Cloudy
2:52 PM 66.9 °F - 36.0 °F 32% 29.61 in 10.0 mi WSW 8.1 mph - N/A   Mostly Cloudy
3:52 PM 68.0 °F - 30.9 °F 25% 29.60 in 10.0 mi WNW 10.4 mph 18.4 mph N/A   Mostly Cloudy
4:52 PM 70.0 °F - 28.0 °F 21% 29.60 in 10.0 mi NW 8.1 mph 17.3 mph N/A   Mostly Cloudy
5:52 PM 70.0 °F - 26.1 °F 19% 29.60 in 10.0 mi NW 10.4 mph 20.7 mph N/A   Scattered Clouds
6:52 PM 70.0 °F - 28.0 °F 21% 29.60 in 10.0 mi NNW 10.4 mph - N/A   Clear
7:52 PM 68.0 °F - 27.0 °F 21% 29.61 in 10.0 mi NW 13.8 mph 18.4 mph N/A   Scattered Clouds
8:52 PM 66.9 °F - 28.0 °F 23% 29.62 in 10.0 mi WNW 12.7 mph - N/A   Partly Cloudy
9:52 PM 64.0 °F - 27.0 °F 25% 29.62 in 10.0 mi WNW 11.5 mph - N/A   Clear
10:52 PM 61.0 °F - 28.0 °F 29% 29.64 in 10.0 mi NW 9.2 mph - N/A   Clear
11:52 PM 57.9 °F - 30.9 °F 36% 29.65 in 10.0 mi WNW 10.4 mph - N/A   Clear